Yankton, SD

5:54 PM CST on December 15, 2017 (GMT -0600)
Gurney Municipal

Weather History for KYKN - May, 2014

Change the Weather History Date:

Sunday, May 25, 2014

  Actual Average Record
Temperature  
Mean Temperature 68 °F -  
Max Temperature 80 °F 72 °F 88 °F (1978)
Min Temperature 57 °F 49 °F 37 °F (1954)
Cooling Degree Days 4    
Growing Degree Days 18 (Base 50)    
Moisture  
Dew Point 61 °F    
Average Humidity 74    
Maximum Humidity 100    
Minimum Humidity 54    
Precipitation  
Precipitation 0.06 in - - ()
Sea Level Pressure  
Sea Level Pressure 29.94 in    
Wind  
Wind Speed 8 mph (SSE)    
Max Wind Speed 15 mph    
Max Gust Speed 17 mph    
Visibility 9 miles    
Events Thunderstorm    
Averages and records for this station are not official NWS values.
T = Trace of Precipitation, MM = Missing Value Source: NWS Daily Summary

Daily Weather History Graph

Daily Weather History Graph

Search for Another Location

Airport or City:

Trip Planner

Search our weather history database for the weather conditions in past years. The results will help you decide how hot, cold, wet, or windy it might be!

Date:

Astronomy

May. 25, 2014 Rise Set
Actual Time 5:57 AM CDT 8:55 PM CDT
Civil Twilight 5:24 AM CDT 9:29 PM CDT
Nautical Twilight 4:41 AM CDT 10:12 PM CDT
Astronomical Twilight 3:50 AM CDT 11:03 PM CDT
Moon 4:08 AM CDT (5/25) 5:53 PM CDT (5/25)
Length of Visible Light 16h 05m
Length of Day
14h 58m
Waning Crescent, 10% of the Moon is Illuminated
May 25
Waning Crescent
May 28
New
Jun 5
First Quarter
Jun 12
Full
Jun 19
Last Quarter

Hourly Weather History & Observations

Time (CDT) Temp. Heat Index Dew Point Humidity Pressure Visibility Wind Dir Wind Speed Gust Speed Precip Events Conditions
12:15 AM 64.4 °F - 51.8 °F 64% 30.01 in 9.0 mi SE 8.1 mph - N/A   Clear
12:35 AM 64.4 °F - 53.6 °F 68% 30.01 in 10.0 mi SSE 8.1 mph - N/A   Clear
1:15 AM 64.4 °F - 57.2 °F 77% 30.01 in 10.0 mi SSE 9.2 mph - N/A   Clear
1:35 AM 64.4 °F - 57.2 °F 77% 30.01 in 10.0 mi South 10.4 mph - N/A   Clear
1:55 AM 64.4 °F - 57.2 °F 77% 30.01 in 10.0 mi South 10.4 mph - N/A   Clear
2:15 AM 64.4 °F - 57.2 °F 77% 30.00 in 10.0 mi South 8.1 mph - N/A   Clear
2:35 AM 62.6 °F - 57.2 °F 82% 29.99 in 10.0 mi SSE 6.9 mph - N/A   Clear
2:55 AM 60.8 °F - 57.2 °F 88% 29.99 in 10.0 mi SSE 6.9 mph - N/A   Clear
3:15 AM 60.8 °F - 55.4 °F 82% 29.99 in 10.0 mi East 4.6 mph - N/A   Clear
3:35 AM 60.8 °F - 57.2 °F 88% 29.99 in 10.0 mi ESE 5.8 mph - N/A   Clear
3:55 AM 60.8 °F - 57.2 °F 88% 29.99 in 10.0 mi Calm Calm - N/A   Clear
4:15 AM 60.8 °F - 57.2 °F 88% 29.98 in 10.0 mi SE 5.8 mph - N/A   Partly Cloudy
4:35 AM 60.8 °F - 55.4 °F 82% 29.98 in 10.0 mi SE 6.9 mph - N/A   Partly Cloudy
4:55 AM 60.8 °F - 57.2 °F 88% 29.98 in 10.0 mi SE 5.8 mph - N/A   Clear
5:15 AM 59.0 °F - 57.2 °F 94% 29.98 in 8.0 mi SE 5.8 mph - N/A   Clear
5:35 AM 59.0 °F - 55.4 °F 88% 29.98 in 7.0 mi East 3.5 mph - N/A   Clear
5:55 AM 57.2 °F - 57.2 °F 100% 29.98 in 4.0 mi East 3.5 mph - N/A   Partly Cloudy
6:15 AM 59.0 °F - 57.2 °F 94% 29.98 in 5.0 mi Calm Calm - N/A   Mostly Cloudy
6:35 AM 59.0 °F - 57.2 °F 94% 29.98 in 4.0 mi Calm Calm - N/A   Overcast
6:55 AM 59.0 °F - 57.2 °F 94% 29.98 in 5.0 mi East 4.6 mph - N/A   Overcast
7:15 AM 60.8 °F - 57.2 °F 88% 29.98 in 5.0 mi East 4.6 mph - N/A   Overcast
7:35 AM 60.8 °F - 57.2 °F 88% 29.98 in 6.0 mi East 4.6 mph - N/A   Overcast
7:55 AM 62.6 °F - 59.0 °F 88% 29.99 in 5.0 mi ESE 4.6 mph - N/A   Overcast
8:15 AM 62.6 °F - 60.8 °F 94% 29.99 in 6.0 mi SE 5.8 mph - N/A   Overcast
8:35 AM 66.2 °F - 62.6 °F 88% 29.98 in 5.0 mi SE 9.2 mph - N/A   Mostly Cloudy
8:55 AM 66.2 °F - 62.6 °F 88% 29.97 in 6.0 mi SSE 10.4 mph - N/A   Scattered Clouds
9:15 AM 68.0 °F - 62.6 °F 83% 29.97 in 7.0 mi SE 9.2 mph - N/A   Scattered Clouds
10:15 AM 71.6 °F - 62.6 °F 73% 29.96 in 10.0 mi South 10.4 mph 17.3 mph N/A   Mostly Cloudy
10:35 AM 71.6 °F - 62.6 °F 73% 29.96 in 10.0 mi SSE 11.5 mph 16.1 mph N/A   Scattered Clouds
10:55 AM 71.6 °F - 62.6 °F 73% 29.96 in 10.0 mi SSE 11.5 mph 16.1 mph N/A   Scattered Clouds
11:15 AM 71.6 °F - 62.6 °F 73% 29.96 in 10.0 mi SSE 11.5 mph - N/A   Mostly Cloudy
11:35 AM 73.4 °F - 62.6 °F 69% 29.96 in 10.0 mi South 11.5 mph - N/A   Overcast
11:55 AM 73.4 °F - 62.6 °F 69% 29.96 in 10.0 mi South 12.7 mph - N/A   Overcast
12:15 PM 73.4 °F - 62.6 °F 69% 29.96 in 10.0 mi South 9.2 mph - N/A   Overcast
12:35 PM 75.2 °F - 62.6 °F 65% 29.96 in 10.0 mi South 11.5 mph - N/A   Overcast
12:55 PM 75.2 °F - 62.6 °F 65% 29.96 in 10.0 mi South 11.5 mph - N/A   Overcast
1:15 PM 73.4 °F - 64.4 °F 73% 29.96 in 9.0 mi SSE 10.4 mph - N/A   Overcast
1:35 PM 75.2 °F - 64.4 °F 69% 29.95 in 10.0 mi SSE 5.8 mph - N/A   Mostly Cloudy
1:55 PM 75.2 °F - 64.4 °F 69% 29.95 in 10.0 mi SSE 8.1 mph - N/A   Mostly Cloudy
2:15 PM 75.2 °F - 64.4 °F 69% 29.94 in 10.0 mi South 5.8 mph - N/A   Mostly Cloudy
2:35 PM 77.0 °F - 64.4 °F 65% 29.93 in 10.0 mi South 10.4 mph - N/A   Overcast
2:55 PM 77.0 °F - 64.4 °F 65% 29.93 in 10.0 mi South 8.1 mph - N/A   Overcast
3:15 PM 77.0 °F - 64.4 °F 65% 29.92 in 10.0 mi South 10.4 mph - N/A   Mostly Cloudy
3:35 PM 78.8 °F - 64.4 °F 61% 29.92 in 10.0 mi South 9.2 mph - N/A   Scattered Clouds
3:55 PM 80.6 °F 82.3 °F 64.4 °F 58% 29.91 in 10.0 mi SW 6.9 mph - N/A   Mostly Cloudy
4:35 PM 80.6 °F 81.8 °F 62.6 °F 54% 29.89 in 10.0 mi South 3.5 mph - N/A   Scattered Clouds
4:55 PM 80.6 °F 81.8 °F 62.6 °F 54% 29.88 in 10.0 mi South 4.6 mph - N/A   Partly Cloudy
5:15 PM 80.6 °F 81.8 °F 62.6 °F 54% 29.87 in 10.0 mi SSW 6.9 mph - N/A   Partly Cloudy
5:35 PM 80.6 °F 81.8 °F 62.6 °F 54% 29.86 in 10.0 mi South 11.5 mph - N/A   Scattered Clouds
5:55 PM 80.6 °F 81.8 °F 62.6 °F 54% 29.86 in 10.0 mi SSE 10.4 mph - N/A   Mostly Cloudy
6:15 PM 80.6 °F 81.8 °F 62.6 °F 54% 29.85 in 10.0 mi South 4.6 mph - N/A   Scattered Clouds
6:35 PM 80.6 °F 82.3 °F 64.4 °F 58% 29.85 in 10.0 mi ESE 6.9 mph - N/A   Clear
6:55 PM 80.6 °F 81.8 °F 62.6 °F 54% 29.85 in 10.0 mi SSE 8.1 mph - N/A   Partly Cloudy
7:15 PM 78.8 °F - 64.4 °F 61% 29.85 in 10.0 mi SSE 8.1 mph - N/A   Partly Cloudy
7:35 PM 78.8 °F - 64.4 °F 61% 29.85 in 10.0 mi SSE 8.1 mph - N/A   Clear
7:55 PM 78.8 °F - 64.4 °F 61% 29.86 in 10.0 mi ESE 6.9 mph - N/A   Clear
8:15 PM 78.8 °F - 64.4 °F 61% 29.86 in 10.0 mi ESE 8.1 mph - N/A   Clear
8:35 PM 77.0 °F - 64.4 °F 65% 29.87 in 10.0 mi ESE 8.1 mph - N/A   Clear
8:55 PM 75.2 °F - 64.4 °F 69% 29.88 in 10.0 mi ESE 5.8 mph - N/A   Clear
9:15 PM 75.2 °F - 62.6 °F 65% 29.89 in 10.0 mi East 6.9 mph - N/A   Clear
9:35 PM 75.2 °F - 62.6 °F 65% 29.91 in 10.0 mi East 9.2 mph - N/A Thunderstorm Partly Cloudy
9:55 PM 75.2 °F - 64.4 °F 69% 29.92 in 10.0 mi South 9.2 mph - N/A Thunderstorm Scattered Clouds
10:15 PM 71.6 °F - 60.8 °F 69% 29.93 in 10.0 mi South 15.0 mph - N/A Thunderstorm Thunderstorm
10:35 PM 68.0 °F - 60.8 °F 78% 29.92 in 10.0 mi SE 8.1 mph - N/A Thunderstorm Thunderstorm
10:55 PM 68.0 °F - 60.8 °F 78% 29.94 in 10.0 mi South 6.9 mph - N/A Thunderstorm Overcast
11:15 PM 66.2 °F - 60.8 °F 83% 29.93 in 10.0 mi SSW 8.1 mph - N/A   Mostly Cloudy
11:35 PM 66.2 °F - 60.8 °F 83% 29.93 in 9.0 mi South 4.6 mph - 0.03 in   Overcast
11:55 PM 64.4 °F - 60.8 °F 88% 29.92 in 10.0 mi SSE 12.7 mph - 0.06 in   Mostly Cloudy